• In Kazakhstan
  • List of Countries
  • For 7 days
  • Water Temperature
  • Satellite Maps
  • Weather Map
  • News
  • Weather Widgets
  • user-avatar
    Login

    Hourly Weather Woodland

    Today, 27 September, Wednesday

    Time Temperature Precipitation Wind Pressure Humidity
    00:00 +16°C° 0 mm 2 mps 747 mmHg 90%
    01:00 +16°C° 0 mm 2 mps 747 mmHg 91%
    02:00 +15°C° 0.1 mm 2 mps 747 mmHg 90%
    03:00 +14°C° 0.1 mm 3 mps 746 mmHg 90%
    04:00 +13°C° 0.1 mm 3 mps 746 mmHg 90%
    05:00 +14°C° 0.4 mm 3 mps 746 mmHg 92%
    06:00 +15°C° 0.4 mm 2 mps 745 mmHg 93%
    07:00 +15°C° 0.4 mm 2 mps 745 mmHg 95%
    08:00 +16°C° 0.1 mm 2 mps 744 mmHg 95%
    09:00 +17°C° 0.1 mm 3 mps 744 mmHg 94%
    10:00 +18°C° 0.1 mm 3 mps 743 mmHg 93%
    11:00 +20°C° 0.1 mm 3 mps 743 mmHg 90%
    12:00 +21°C° 0.1 mm 3 mps 742 mmHg 87%
    13:00 +22°C° 0.1 mm 4 mps 741 mmHg 85%
    14:00 +24°C° 0.5 mm 3 mps 741 mmHg 85%
    15:00 +24°C° 0.5 mm 3 mps 740 mmHg 85%
    16:00 +25°C° 0.5 mm 3 mps 740 mmHg 85%
    17:00 +24°C° 1.6 mm 2 mps 740 mmHg 88%
    18:00 +23°C° 1.6 mm 2 mps 739 mmHg 91%
    19:00 +21°C° 1.6 mm 2 mps 739 mmHg 94%
    20:00 +20°C° 1.5 mm 2 mps 738 mmHg 95%
    21:00 +20°C° 1.5 mm 3 mps 738 mmHg 96%
    22:00 +20°C° 1.5 mm 3 mps 737 mmHg 97%
    23:00 +20°C° 2.7 mm 3 mps 737 mmHg 97%

    Tomorrow, 28 September, Thursday

    Time Temperature Precipitation Wind Pressure Humidity
    00:00 +20°C° 2.7 mm 3 mps 737 mmHg 97%
    01:00 +20°C° 2.7 mm 4 mps 736 mmHg 97%
    02:00 +19°C° 0.7 mm 3 mps 736 mmHg 96%
    03:00 +19°C° 0.7 mm 3 mps 736 mmHg 95%
    04:00 +18°C° 0.7 mm 3 mps 737 mmHg 94%
    05:00 +17°C° 0.1 mm 3 mps 737 mmHg 93%
    06:00 +15°C° 0.1 mm 4 mps 737 mmHg 92%
    07:00 +13°C° 0.1 mm 4 mps 738 mmHg 90%
    08:00 +14°C° 0 mm 4 mps 738 mmHg 84%
    09:00 +14°C° 0 mm 4 mps 738 mmHg 77%
    10:00 +15°C° 0 mm 5 mps 739 mmHg 70%
    11:00 +15°C° 0 mm 5 mps 739 mmHg 66%
    12:00 +15°C° 0 mm 5 mps 739 mmHg 62%
    13:00 +15°C° 0 mm 5 mps 739 mmHg 58%
    14:00 +15°C° 0 mm 4 mps 739 mmHg 59%
    15:00 +14°C° 0 mm 4 mps 739 mmHg 60%
    16:00 +14°C° 0 mm 4 mps 739 mmHg 61%
    17:00 +12°C° 0 mm 4 mps 739 mmHg 64%
    18:00 +11°C° 0 mm 3 mps 740 mmHg 68%
    19:00 +9°C° 0 mm 3 mps 740 mmHg 71%
    20:00 +8°C° 0 mm 3 mps 740 mmHg 73%
    21:00 +8°C° 0 mm 3 mps 740 mmHg 74%
    22:00 +7°C° 0 mm 3 mps 740 mmHg 75%
    23:00 +5°C° 0 mm 3 mps 740 mmHg 76%

    Day after tomorrow, 29 September, Friday

    Time Temperature Precipitation Wind Pressure Humidity
    00:00 +5°C° 0 mm 3 mps 740 mmHg 77%
    01:00 +5°C° 0 mm 3 mps 740 mmHg 77%
    02:00 +4°C° 0 mm 3 mps 740 mmHg 78%
    03:00 +4°C° 0 mm 3 mps 740 mmHg 78%
    04:00 +4°C° 0 mm 3 mps 740 mmHg 78%
    05:00 +4°C° 0 mm 4 mps 741 mmHg 76%
    06:00 +4°C° 0 mm 4 mps 741 mmHg 74%
    07:00 +5°C° 0 mm 5 mps 741 mmHg 72%
    08:00 +6°C° 0 mm 5 mps 741 mmHg 67%
    09:00 +7°C° 0 mm 5 mps 742 mmHg 62%
    10:00 +9°C° 0 mm 5 mps 742 mmHg 58%
    11:00 +9°C° 0 mm 5 mps 742 mmHg 57%
    12:00 +9°C° 0 mm 5 mps 742 mmHg 56%
    13:00 +10°C° 0 mm 5 mps 742 mmHg 55%
    14:00 +9°C° 0 mm 5 mps 743 mmHg 56%
    15:00 +10°C° 0 mm 4 mps 743 mmHg 57%
    16:00 +8°C° 0 mm 4 mps 743 mmHg 59%
    17:00 +8°C° 0 mm 3 mps 744 mmHg 63%
    18:00 +7°C° 0 mm 3 mps 745 mmHg 68%
    19:00 +6°C° 0 mm 2 mps 746 mmHg 73%
    20:00 +5°C° 0 mm 2 mps 746 mmHg 77%
    21:00 +4°C° 0 mm 2 mps 746 mmHg 81%
    22:00 +3°C° 0 mm 2 mps 747 mmHg 86%
    23:00 +3°C° 0 mm 2 mps 747 mmHg 88%

    30 September, Saturday

    Time Temperature Precipitation Wind Pressure Humidity
    00:00 +2°C° 0 mm 2 mps 748 mmHg 90%
    01:00 +2°C° 0 mm 2 mps 748 mmHg 92%
    02:00 +2°C° 0 mm 2 mps 749 mmHg 93%
    03:00 +1°C° 0 mm 2 mps 749 mmHg 94%
    04:00 +1°C° 0 mm 2 mps 750 mmHg 95%
    05:00 +2°C° 0 mm 2 mps 750 mmHg 90%
    06:00 +2°C° 0 mm 2 mps 751 mmHg 85%
    07:00 +3°C° 0 mm 2 mps 752 mmHg 79%
    08:00 +5°C° 0 mm 2 mps 752 mmHg 70%
    09:00 +5°C° 0 mm 3 mps 752 mmHg 61%
    10:00 +8°C° 0 mm 3 mps 753 mmHg 52%
    11:00 +9°C° 0 mm 3 mps 753 mmHg 49%
    12:00 +10°C° 0 mm 3 mps 752 mmHg 46%
    13:00 +12°C° 0 mm 2 mps 752 mmHg 44%
    14:00 +10°C° 0 mm 2 mps 752 mmHg 46%
    15:00 +10°C° 0 mm 2 mps 752 mmHg 49%
    16:00 +10°C° 0 mm 2 mps 752 mmHg 52%
    17:00 +9°C° 0 mm 1 mps 753 mmHg 59%
    18:00 +7°C° 0 mm 1 mps 753 mmHg 66%
    19:00 +5°C° 0 mm 1 mps 753 mmHg 72%
    20:00 +4°C° 0 mm 1 mps 754 mmHg 73%
    21:00 +4°C° 0 mm 1 mps 754 mmHg 74%
    22:00 +3°C° 0 mm 1 mps 754 mmHg 75%
    23:00 +3°C° 0 mm 1 mps 754 mmHg 75%

    1 October, Sunday

    Time Temperature Precipitation Wind Pressure Humidity
    00:00 +3°C° 0 mm 1 mps 754 mmHg 76%
    01:00 +3°C° 0 mm 1 mps 754 mmHg 76%
    02:00 +2°C° 0 mm 1 mps 754 mmHg 78%
    03:00 +2°C° 0 mm 1 mps 754 mmHg 80%
    04:00 +1°C° 0 mm 2 mps 754 mmHg 82%
    05:00 +2°C° 0 mm 2 mps 754 mmHg 78%
    06:00 +3°C° 0 mm 2 mps 754 mmHg 74%
    07:00 +5°C° 0 mm 2 mps 754 mmHg 70%
    08:00 +7°C° 0 mm 2 mps 754 mmHg 63%
    09:00 +10°C° 0 mm 3 mps 753 mmHg 57%
    10:00 +12°C° 0 mm 3 mps 753 mmHg 50%
    11:00 +14°C° 0 mm 3 mps 753 mmHg 48%
    12:00 +16°C° 0 mm 3 mps 752 mmHg 46%
    13:00 +17°C° 0 mm 3 mps 752 mmHg 45%
    14:00 +17°C° 0 mm 3 mps 752 mmHg 49%
    15:00 +17°C° 0 mm 2 mps 752 mmHg 54%
    16:00 +16°C° 0 mm 2 mps 751 mmHg 58%
    17:00 +14°C° 0 mm 2 mps 752 mmHg 64%
    18:00 +12°C° 0 mm 2 mps 752 mmHg 71%
    19:00 +9°C° 0 mm 2 mps 753 mmHg 77%
    20:00 +8°C° 0 mm 2 mps 753 mmHg 81%
    21:00 +7°C° 0 mm 2 mps 753 mmHg 84%
    22:00 +7°C° 0 mm 2 mps 753 mmHg 87%
    23:00 +7°C° 0 mm 1 mps 753 mmHg 89%

    2 October, Monday

    Time Temperature Precipitation Wind Pressure Humidity
    00:00 +7°C° 0 mm 1 mps 753 mmHg 91%
    01:00 +6°C° 0 mm 1 mps 754 mmHg 92%
    02:00 +6°C° 0 mm 1 mps 754 mmHg 92%
    03:00 +6°C° 0 mm 1 mps 754 mmHg 93%
    04:00 +6°C° 0 mm 1 mps 754 mmHg 93%
    05:00 +7°C° 0 mm 1 mps 755 mmHg 89%
    06:00 +8°C° 0 mm 1 mps 755 mmHg 85%
    07:00 +9°C° 0 mm 1 mps 755 mmHg 81%
    08:00 +11°C° 0 mm 1 mps 755 mmHg 73%
    09:00 +14°C° 0 mm 1 mps 755 mmHg 65%
    10:00 +17°C° 0 mm 2 mps 755 mmHg 57%
    11:00 +18°C° 0 mm 2 mps 755 mmHg 54%
    12:00 +18°C° 0 mm 2 mps 755 mmHg 52%
    13:00 +19°C° 0 mm 2 mps 755 mmHg 49%
    14:00 +20°C° 0 mm 1 mps 756 mmHg 54%
    15:00 +19°C° 0 mm 1 mps 756 mmHg 58%
    16:00 +18°C° 0 mm 1 mps 756 mmHg 63%
    17:00 +15°C° 0 mm 1 mps 756 mmHg 70%
    18:00 +13°C° 0 mm 1 mps 757 mmHg 77%
    19:00 +11°C° 0 mm 1 mps 758 mmHg 84%
    20:00 +11°C° 0 mm 1 mps 758 mmHg 87%
    21:00 +10°C° 0 mm 1 mps 758 mmHg 91%
    22:00 +9°C° 0 mm 1 mps 758 mmHg 94%
    23:00 +9°C° 0 mm 1 mps 759 mmHg 95%
    Show more